timestamp,wind_dir_avg,wind_spd_avg,wind_spd_max_dir,wind_spd_gust,battery_voltage,lat,long
2023-02-16 00:04:00+00:00,285.0,4.2,284.0,4.63,12.41,47.59359,-54.27349
2023-02-16 00:14:01+00:00,282.0,4.01,277.0,4.47,12.33,47.59359,-54.27349
2023-02-16 00:24:01+00:00,282.0,4.17,281.0,4.44,12.33,47.59359,-54.27349
2023-02-16 00:34:01+00:00,284.0,4.14,289.0,4.76,12.33,47.59359,-54.27349
2023-02-16 00:44:01+00:00,282.0,4.37,283.0,5.08,12.33,47.59359,-54.27349
2023-02-16 00:54:01+00:00,294.0,4.65,294.0,5.14,12.33,47.59359,-54.27349
2023-02-16 01:04:01+00:00,289.0,4.26,291.0,4.94,12.33,47.59359,-54.27349
2023-02-16 01:14:00+00:00,281.0,2.97,277.0,3.33,12.33,47.59359,-54.27349
2023-02-16 01:24:00+00:00,294.0,3.02,297.0,3.51,12.33,47.59359,-54.27349
2023-02-16 01:34:00+00:00,282.0,4.12,285.0,4.43,12.33,47.59359,-54.27349
2023-02-16 01:44:00+00:00,283.0,3.93,290.0,4.91,12.33,47.59359,-54.27349
2023-02-16 01:54:00+00:00,289.0,3.41,294.0,4.4,12.33,47.59359,-54.27349
2023-02-16 02:04:00+00:00,301.0,3.27,304.0,3.75,12.33,47.59359,-54.27349
2023-02-16 02:14:00+00:00,287.0,3.92,295.0,4.47,12.25,47.59359,-54.27349
2023-02-16 02:24:00+00:00,253.0,3.58,246.0,4.43,12.25,47.59359,-54.27349
2023-02-16 02:34:00+00:00,245.0,3.93,244.0,4.4,12.25,47.59359,-54.27349
2023-02-16 02:44:00+00:00,249.0,4.46,250.0,5.02,12.25,47.59359,-54.27349
2023-02-16 02:54:00+00:00,266.0,4.45,270.0,5.12,12.25,47.59359,-54.27349
2023-02-16 03:04:00+00:00,218.0,4.79,217.0,5.25,12.25,47.59359,-54.27349
2023-02-16 03:14:00+00:00,221.0,4.12,218.0,4.74,12.25,47.59359,-54.27349
2023-02-16 03:24:00+00:00,230.0,3.85,221.0,4.4,12.25,47.59359,-54.27349
2023-02-16 03:34:00+00:00,219.0,3.83,219.0,4.73,12.25,47.59359,-54.27349
2023-02-16 03:44:00+00:00,220.0,4.35,219.0,4.98,12.25,47.59359,-54.27349
2023-02-16 03:54:00+00:00,235.0,4.12,234.0,4.51,12.25,47.59359,-54.27349
2023-02-16 04:04:00+00:00,229.0,4.97,227.0,5.47,12.25,47.59359,-54.27349
2023-02-16 04:14:00+00:00,232.0,4.78,231.0,5.16,12.25,47.59359,-54.27349
2023-02-16 04:24:00+00:00,231.0,3.93,233.0,4.38,12.25,47.59359,-54.27349
2023-02-16 04:34:00+00:00,229.0,4.13,224.0,4.64,12.25,47.59359,-54.27349
2023-02-16 04:44:00+00:00,226.0,5.89,226.0,6.42,12.25,47.59359,-54.27349
2023-02-16 04:54:00+00:00,230.0,4.88,220.0,6.08,12.25,47.59359,-54.27349
2023-02-16 05:04:00+00:00,237.0,4.52,240.0,5.17,12.25,47.59359,-54.27349
2023-02-16 05:14:01+00:00,229.0,5.25,229.0,5.67,12.17,47.59359,-54.27349
2023-02-16 05:24:01+00:00,233.0,5.92,232.0,6.56,12.17,47.59359,-54.27349
2023-02-16 05:34:01+00:00,245.0,6.01,241.0,6.36,12.17,47.59359,-54.27349
2023-02-16 05:44:01+00:00,233.0,4.54,233.0,5.59,12.17,47.59359,-54.27349
2023-02-16 05:54:01+00:00,244.0,5.73,244.0,6.95,12.17,47.59359,-54.27349
2023-02-16 06:04:01+00:00,244.0,6.26,244.0,6.91,12.17,47.59359,-54.27349
2023-02-16 06:14:01+00:00,252.0,6.74,255.0,7.37,12.17,47.59359,-54.27349
2023-02-16 06:24:01+00:00,237.0,6.17,233.0,7.15,12.17,47.59359,-54.27349
2023-02-16 06:34:01+00:00,239.0,6.6,237.0,7.68,12.17,47.59359,-54.27349
2023-02-16 06:44:01+00:00,242.0,7.38,242.0,8.51,12.17,47.59359,-54.27349
2023-02-16 06:54:01+00:00,241.0,7.14,243.0,8.57,12.17,47.59359,-54.27349
2023-02-16 07:04:01+00:00,244.0,7.55,247.0,8.42,12.17,47.59359,-54.27349
2023-02-16 07:14:00+00:00,236.0,7.16,234.0,7.72,12.17,47.59359,-54.27349
2023-02-16 07:24:00+00:00,231.0,7.05,229.0,8.07,12.17,47.59359,-54.27349
2023-02-16 07:34:00+00:00,237.0,6.31,241.0,7.56,12.17,47.59359,-54.27349
2023-02-16 07:44:00+00:00,246.0,6.63,248.0,7.35,12.17,47.59359,-54.27349
2023-02-16 07:54:00+00:00,234.0,5.36,229.0,6.14,12.17,47.59359,-54.27349
2023-02-16 08:04:00+00:00,229.0,6.44,227.0,7.39,12.17,47.59359,-54.27349
2023-02-16 08:14:00+00:00,241.0,5.88,241.0,6.91,12.17,47.59359,-54.27349
2023-02-16 08:24:00+00:00,231.0,7.05,232.0,7.99,12.17,47.59359,-54.27349
2023-02-16 08:34:00+00:00,228.0,6.37,230.0,7.2,12.17,47.59359,-54.27349
2023-02-16 08:44:00+00:00,238.0,6.73,242.0,8.48,12.17,47.59359,-54.27349
2023-02-16 08:54:00+00:00,238.0,6.03,233.0,7.51,12.17,47.59359,-54.27349
2023-02-16 09:04:00+00:00,230.0,5.54,231.0,6.27,12.17,47.59359,-54.27349
2023-02-16 09:14:01+00:00,219.0,4.64,218.0,5.37,12.17,47.59359,-54.27349
2023-02-16 09:24:01+00:00,220.0,4.68,220.0,5.49,12.17,47.59359,-54.27349
2023-02-16 09:34:01+00:00,223.0,5.12,221.0,5.93,12.17,47.59359,-54.27349
2023-02-16 09:44:01+00:00,214.0,6.33,218.0,7.21,12.17,47.59359,-54.27349
2023-02-16 09:54:01+00:00,205.0,6.74,205.0,7.61,12.17,47.59359,-54.27349
2023-02-16 10:04:01+00:00,203.0,6.56,203.0,7.18,12.17,47.59359,-54.27349
2023-02-16 10:14:00+00:00,212.0,6.96,210.0,7.86,12.09,47.59359,-54.27349
2023-02-16 10:24:00+00:00,210.0,5.85,208.0,6.7,12.09,47.59359,-54.27349
2023-02-16 10:34:00+00:00,216.0,7.09,216.0,8.11,12.09,47.59359,-54.27349
2023-02-16 10:44:00+00:00,226.0,7.86,235.0,8.63,12.09,47.59359,-54.27349
2023-02-16 10:54:00+00:00,225.0,7.29,229.0,8.71,12.09,47.59359,-54.27349
2023-02-16 11:04:00+00:00,223.0,9.36,223.0,10.7,12.09,47.59359,-54.27349
2023-02-16 11:14:00+00:00,225.0,8.2,229.0,9.09,12.17,47.59359,-54.27349
2023-02-16 11:24:00+00:00,220.0,9.48,221.0,11.04,12.17,47.59359,-54.27349
2023-02-16 11:34:00+00:00,217.0,10.47,217.0,11.65,12.17,47.59359,-54.27349
2023-02-16 11:44:00+00:00,217.0,9.14,215.0,10.1,12.17,47.59359,-54.27349
2023-02-16 11:54:00+00:00,214.0,8.57,206.0,10.14,12.17,47.59359,-54.27349
2023-02-16 12:04:00+00:00,218.0,7.98,232.0,9.6,12.17,47.59359,-54.27349
2023-02-16 12:14:01+00:00,210.0,9.08,208.0,10.64,13.6,47.59359,-54.27349
2023-02-16 12:24:01+00:00,217.0,8.52,214.0,9.29,13.6,47.59359,-54.27349
2023-02-16 12:34:01+00:00,215.0,8.89,220.0,10.71,13.6,47.59359,-54.27349
2023-02-16 12:44:01+00:00,217.0,9.33,222.0,10.85,13.6,47.59359,-54.27349
2023-02-16 12:54:01+00:00,215.0,9.07,217.0,10.73,13.6,47.59359,-54.27349
2023-02-16 13:04:01+00:00,207.0,10.22,206.0,11.55,13.6,47.59359,-54.27349
2023-02-16 13:14:00+00:00,209.0,8.78,210.0,10.3,13.53,47.59359,-54.27349
2023-02-16 13:24:00+00:00,211.0,8.41,209.0,9.99,13.53,47.59359,-54.27349
2023-02-16 13:34:00+00:00,206.0,9.63,210.0,10.39,13.53,47.59359,-54.27349
2023-02-16 13:44:00+00:00,203.0,8.85,197.0,10.98,13.53,47.59359,-54.27349
2023-02-16 13:54:00+00:00,206.0,10.31,199.0,12.6,13.53,47.59359,-54.27349
2023-02-16 14:04:00+00:00,211.0,10.4,205.0,11.52,13.53,47.59359,-54.27349
2023-02-16 14:14:00+00:00,206.0,10.71,212.0,12.13,13.76,47.59359,-54.27349
2023-02-16 14:24:00+00:00,203.0,11.41,200.0,13.37,13.76,47.59359,-54.27349
2023-02-16 14:34:00+00:00,214.0,9.5,219.0,11.41,13.76,47.59359,-54.27349
2023-02-16 14:44:00+00:00,214.0,9.6,215.0,10.91,13.76,47.59359,-54.27349
2023-02-16 14:54:00+00:00,209.0,8.41,217.0,9.7,13.76,47.59359,-54.27349
2023-02-16 15:04:00+00:00,198.0,8.52,195.0,10.04,13.76,47.59359,-54.27349
2023-02-16 15:14:00+00:00,186.0,9.63,184.0,10.61,13.68,47.59359,-54.27349
2023-02-16 15:24:00+00:00,175.0,8.36,172.0,9.39,13.68,47.59359,-54.27349
2023-02-16 15:34:00+00:00,202.0,9.06,201.0,10.18,13.68,47.59359,-54.27349
2023-02-16 15:44:00+00:00,212.0,8.69,221.0,11.28,13.68,47.59359,-54.27349
2023-02-16 15:54:00+00:00,201.0,9.85,190.0,11.57,13.68,47.59359,-54.27349
2023-02-16 16:04:00+00:00,199.0,11.13,197.0,13.1,13.68,47.59359,-54.27349
2023-02-16 16:14:00+00:00,199.0,11.07,197.0,12.16,13.76,47.59359,-54.27349
2023-02-16 16:24:00+00:00,203.0,11.36,208.0,14.48,13.76,47.59359,-54.27349
2023-02-16 16:34:00+00:00,193.0,14.6,191.0,17.41,13.76,47.59359,-54.27349
2023-02-16 16:44:00+00:00,192.0,13.42,193.0,15.33,13.76,47.59359,-54.27349
2023-02-16 16:54:00+00:00,194.0,13.77,193.0,15.61,13.76,47.59359,-54.27349
2023-02-16 17:04:00+00:00,191.0,11.86,195.0,13.42,13.76,47.59359,-54.27349
2023-02-16 17:14:01+00:00,195.0,14.11,205.0,16.12,13.6,47.59359,-54.27349
2023-02-16 17:24:01+00:00,192.0,13.21,198.0,15.21,13.6,47.59359,-54.27349
2023-02-16 17:34:01+00:00,194.0,12.06,196.0,14.33,13.6,47.59359,-54.27349
2023-02-16 17:44:01+00:00,197.0,14.89,200.0,16.66,13.6,47.59359,-54.27349
2023-02-16 17:54:01+00:00,187.0,11.26,197.0,13.46,13.6,47.59359,-54.27349
2023-02-16 18:04:01+00:00,187.0,9.42,194.0,10.21,13.6,47.59359,-54.27349
2023-02-16 18:14:01+00:00,181.0,9.66,182.0,11.76,13.44,47.59359,-54.27349
2023-02-16 18:24:01+00:00,184.0,10.2,196.0,11.82,13.44,47.59359,-54.27349
2023-02-16 18:34:01+00:00,191.0,9.24,197.0,10.62,13.44,47.59359,-54.27349
2023-02-16 18:44:01+00:00,189.0,9.0,194.0,10.65,13.44,47.59359,-54.27349
2023-02-16 18:54:01+00:00,196.0,9.24,197.0,10.45,13.44,47.59359,-54.27349
2023-02-16 19:04:01+00:00,189.0,7.2,190.0,8.43,13.44,47.59359,-54.27349
2023-02-16 19:14:00+00:00,175.0,9.24,175.0,11.18,12.73,47.59359,-54.27349
2023-02-16 19:24:00+00:00,180.0,10.04,187.0,11.84,12.73,47.59359,-54.27349
2023-02-16 19:34:00+00:00,193.0,11.95,194.0,13.18,12.73,47.59359,-54.27349
2023-02-16 19:44:00+00:00,186.0,10.2,192.0,12.99,12.73,47.59359,-54.27349
2023-02-16 19:54:00+00:00,188.0,13.34,194.0,15.08,12.73,47.59359,-54.27349
2023-02-16 20:04:00+00:00,190.0,10.81,187.0,14.23,12.73,47.59359,-54.27349
2023-02-16 20:14:00+00:00,194.0,9.79,197.0,11.76,12.73,47.59359,-54.27349
2023-02-16 20:24:00+00:00,190.0,8.95,178.0,10.68,12.73,47.59359,-54.27349
2023-02-16 20:34:00+00:00,182.0,8.62,184.0,10.93,12.73,47.59359,-54.27349
2023-02-16 20:44:00+00:00,188.0,8.44,188.0,9.68,12.73,47.59359,-54.27349
2023-02-16 20:54:00+00:00,188.0,6.54,190.0,7.33,12.73,47.59359,-54.27349
2023-02-16 21:04:00+00:00,203.0,8.9,204.0,9.97,12.73,47.59359,-54.27349
2023-02-16 21:14:00+00:00,193.0,10.41,196.0,11.75,12.41,47.59359,-54.27349
2023-02-16 21:24:00+00:00,194.0,9.29,198.0,10.18,12.41,47.59359,-54.27349
2023-02-16 21:34:00+00:00,202.0,8.21,204.0,9.3,12.41,47.59359,-54.27349
2023-02-16 21:44:00+00:00,197.0,8.52,204.0,10.27,12.41,47.59359,-54.27349
2023-02-16 21:54:00+00:00,207.0,9.68,209.0,10.86,12.41,47.59359,-54.27349
2023-02-16 22:04:00+00:00,215.0,10.55,215.0,11.41,12.41,47.59359,-54.27349
2023-02-16 22:14:00+00:00,218.0,8.21,219.0,9.98,12.41,47.59359,-54.27349
2023-02-16 22:24:00+00:00,213.0,8.4,210.0,9.35,12.41,47.59359,-54.27349
2023-02-16 22:34:00+00:00,217.0,7.35,220.0,8.68,12.41,47.59359,-54.27349
2023-02-16 22:44:00+00:00,232.0,7.36,228.0,8.74,12.41,47.59359,-54.27349
2023-02-16 22:54:00+00:00,236.0,5.66,235.0,7.08,12.41,47.59359,-54.27349
2023-02-16 23:04:00+00:00,232.0,7.2,233.0,7.89,12.41,47.59359,-54.27349
2023-02-16 23:14:00+00:00,232.0,6.62,240.0,8.68,12.33,47.59359,-54.27349
2023-02-16 23:24:00+00:00,229.0,6.06,232.0,6.97,12.33,47.59359,-54.27349
2023-02-16 23:34:00+00:00,225.0,5.55,228.0,6.36,12.33,47.59359,-54.27349
2023-02-16 23:44:00+00:00,230.0,5.5,235.0,6.53,12.33,47.59359,-54.27349
2023-02-16 23:54:00+00:00,242.0,4.76,245.0,5.79,12.33,47.59359,-54.27349
